[[{"header":{"parameterUnit":"m.s-1","parameterCategory":1,"la1":30.2991,"la2":30.254,"lo1":-89.0895,"lo2":-89.0444,"dy":0.0017,"dx":0.0017,"nx":28,"ny":28,"refTime":"2024-03-25T03:00:00:Z","depth":0,"parameterNumber":2,"parameterNumberName":"U-component_of_WINDS"},"data":[0,0,0,0,0,0,0,0,0,0,0,0,0,0,0,0,0,0,0,0,0,0,0,0,0,0,0,0,0,0,0,0,0,0,0,0,0,0,0,0,0,0,0,0,0,0,0,0,0,0,0,0,0,0,0,0,0,0,0.8974,0.8974,0,0.896,0.896,0.896,0.8893,0.8892,0.889,0.8889,0.8878,0.8879,0.888,0,0,0,0,0,0,0,0,0,0,0,0,0,0.8946,0.8947,0.8974,0.8974,0.8974,0.896,0.896,0.896,0.8894,0.8892,0.889,0.8888,0.8877,0.8879,0.888,0,0,0,0,0,0,0,0,0,0,0,0,0,0.8948,0.8947,0.8974,0.8939,0.8936,0.896,0.896,0.896,0.8894,0.8892,0.8889,0.8887,0.8877,0.8879,0.8881,0.8939,0,0,0.8886,0.8887,0,0,0,0,0,0,0,0,0.8948,0.8949,0.8944,0.8941,0.8938,0.8926,0.8946,0.8953,0.8895,0.891,0.8889,0.8886,0.8896,0.8896,0.8899,0.8939,0.8938,0.8886,0.8887,0.8888,0.8888,0,0,0,0,0,0,0,0.8948,0.8949,0.8969,0.8944,0.894,0.8925,0.8922,0.8947,0.8917,0.8908,0.8904,0.8903,0.8894,0.8897,0.8898,0.8938,0.8886,0.8888,0.8889,0.8889,0.9025,0.9028,0,0,0,0,0,0,0.8952,0.8949,0.8969,0.8968,0.8937,0.8927,0.8925,0.8932,0.8916,0.8911,0.8905,0.89,0.8895,0.8896,0.8898,0.8965,0.8888,0.889,0.8891,0.9023,0.9026,0.9029,0,0,0,0,0,0,0.8952,0.8954,0.897,0.8958,0.8958,0.893,0.8939,0.8933,0.8937,0.8913,0.8908,0.8914,0.8894,0.8895,0.8929,0.8964,0.889,0.8892,0.902,0.9024,0.9027,0.91,0,0,0,0,0,0,0.8951,0.8955,0.8976,0.8958,0.8959,0.9001,0.8942,0.8935,0.894,0.8933,0.892,0.8916,0.8892,0.8927,0.8931,0.8965,0.8893,0.9017,0.9022,0.9026,0.9095,0.9106,0.9116,0,0,0,0,0,0.895,0.8998,0.8977,0.898,0.8985,0.9003,0.9003,0.8974,0.8943,0.8964,0.8949,0.8916,0.8959,0.8931,0.8935,0.897,0.9014,0.902,0.9026,0.909,0.9104,0.9116,0,0,0,0,0,0,0.9021,0.8995,0.8972,0.9015,0.9011,0.8992,0.9018,0.899,0.8996,0.8989,0.8953,0.8951,0.8991,0.8984,0.8952,0.9026,0.8981,0.8988,0.9029,0.9042,0.9052,0.9053,0.8895,0,0,0,0,0,0.9041,0.9057,0.9034,0.9074,0.9073,0.9046,0.9053,0.903,0.9026,0.9024,0.9012,0.901,0.9023,0.9032,0.9043,0.9094,0.909,0.912,0.913,0.9139,0.9146,0.9172,0.9185,0.9047,0.9047,0.9047,0,0,0.9084,0.9071,0.9084,0.9088,0.9082,0.9101,0.9045,0.9067,0.908,0.9028,0.9059,0.905,0.9045,0.9088,0.9106,0.9084,0.9183,0.9147,0.9154,0.9155,0.9179,0.9193,0.9204,0.9051,0.9051,0.905,0,0,0.917,0.9163,0.9195,0.9191,0.9183,0.9165,0.9173,0.9157,0.9149,0.918,0.9141,0.9157,0.918,0.9178,0.918,0.9267,0.9237,0.9271,0.9327,0.9353,0.9364,0.9374,0.9404,0.9416,0.9278,0.9278,0.9278,0,0.9224,0.9249,0.9216,0.9239,0.9243,0.9195,0.9229,0.9227,0.9224,0.9227,0.9202,0.9229,0.9223,0.9265,0.9286,0.9289,0.9298,0.9272,0.9365,0.9374,0.9383,0.9412,0.9423,0.9282,0.9282,0.9281,0.9281,0,0.9316,0.9334,0.9361,0.9358,0.9365,0.9393,0.9365,0.9376,0.9353,0.9338,0.937,0.936,0.9368,0.9377,0.9355,0.9416,0.9402,0.9371,0.9326,0.94,0.9427,0.9438,0.9288,0.9287,0.9285,0.9284,0,0,0.9446,0.9424,0.9435,0.9433,0.9422,0.9435,0.9462,0.9469,0.9479,0.9479,0.9501,0.9521,0.9493,0.9496,0.9473,0.9497,0.9566,0.9463,0.9463,0.9482,0.9632,0.9655,0.9668,0.9546,0.9548,0.955,0.9633,0,0.9528,0.9572,0.9543,0.9591,0.9608,0.9564,0.9587,0.9583,0.957,0.9583,0.9568,0.9583,0.9545,0.9546,0.9567,0.9553,0.9596,0.9547,0.9567,0.9568,0.9569,0.9682,0.9706,0.9785,0.9643,0.9645,0.9646,0,0.963,0.9633,0.9683,0.9669,0.9675,0.9696,0.97,0.9713,0.9708,0.9696,0.97,0.9672,0.9698,0.9653,0.9689,0.9657,0.9663,0.9658,0.966,0.9661,0.9611,0.9686,0.9809,0.9821,0.9662,0.9661,0.966,0,0.972,0.9737,0.9769,0.9769,0.9753,0.9769,0.9763,0.9756,0.9762,0.9766,0.9769,0.9777,0.9781,0.9788,0.9763,0.9733,0.9803,0.9756,0.9795,0.9795,0.9811,0.981,0.9937,0.9816,0.9816,0.9816,0.9815,0,0.9814,0.9847,0.9809,0.9828,0.9864,0.9831,0.9867,0.9857,0.9851,0.9868,0.9831,0.9849,0.9815,0.9829,0.981,0.9843,0.9845,0.9837,0.9832,0.984,0.9841,0.9844,0.9838,0.9819,0.9818,0.9817,0.9817,0,0.992,0.9896,0.9928,0.991,0.9906,0.9933,0.9918,0.9936,0.992,0.9943,0.9947,0.9923,0.9938,0.9914,0.9926,0.9913,0.9959,0.9945,0.996,0.9956,0.9995,0.9992,1.0128,1.0144,1.0014,1.0015,1.0016,0,0.9982,1.0005,0.999,0.9999,0.9995,1.001,1.0015,0.9984,0.9992,0.9989,1.0007,1.0019,1.0027,1.0053,1.0037,1.0047,1.0033,1.008,1.0034,1.0042,1.0033,1.0032,1.0034,1.0089,1.0091,1.0092,1.0093,0,1.0094,1.0081,1.009,1.0096,1.0103,1.0106,1.0107,1.0116,1.0084,1.0095,1.0109,1.0115,1.0128,1.014,1.0146,1.014,1.0112,1.0108,1.0117,1.0126,1.0133,1.0129,0.9985,1.0104,1.0103,1.0102,1.0102,1.0101,1.0179,1.0198,1.019,1.0202,1.0199,1.02,1.0216,1.0202,1.0214,1.0221,1.0202,1.0221,1.0216,1.0221,1.0219,1.0234,1.0213,1.0227,1.023,1.0234,1.024,1.0131,1.0235,1.0235,1.0234,1.0234,1.0234,0,1.0289,1.0282,1.0293,1.0294,1.0304,1.0275,1.0275,1.0285,1.0301,1.0299,1.0307,1.0324,1.0336,1.0321,1.033,1.0345,1.0332,1.0349,1.0347,1.0346,1.0258,1.0249,1.0359,1.0359,1.0359,1.0359,1.0359,1.0359,1.0347,1.0377,1.0364,1.0393,1.0386,1.0403,1.0405,1.0406,1.0404,1.0424,1.0434,1.0424,1.0417,1.0425,1.0435,1.043,1.0436,1.0457,1.0447,1.0365,1.0353,1.0341,1.0332,1.0458,1.0458,1.0534,1.0535,1.0536]},{"header":{"parameterUnit":"m.s-1","parameterCategory":1,"la1":30.2991,"la2":30.254,"lo1":-89.0895,"lo2":-89.0444,"dy":0.0017,"dx":0.0017,"nx":28,"ny":28,"refTime":"2024-03-25T03:00:00:Z","depth":0,"parameterNumber":3,"parameterNumberName":"V-component_of_WINDS"},"data":[0,0,0,0,0,0,0,0,0,0,0,0,0,0,0,0,0,0,0,0,0,0,0,0,0,0,0,0,0,0,0,0,0,0,0,0,0,0,0,0,0,0,0,0,0,0,0,0,0,0,0,0,0,0,0,0,0,0,2.353,2.3531,0,2.3595,2.3595,2.3596,2.3588,2.3587,2.3586,2.3585,2.3647,2.3649,2.3652,0,0,0,0,0,0,0,0,0,0,0,0,0,2.3395,2.3397,2.353,2.3531,2.3532,2.3594,2.3595,2.3596,2.3588,2.3587,2.3586,2.3584,2.3646,2.3649,2.3652,0,0,0,0,0,0,0,0,0,0,0,0,0,2.3456,2.3398,2.353,2.3535,2.3537,2.3594,2.3595,2.3596,2.3588,2.3587,2.3585,2.3584,2.3645,2.3649,2.3652,2.3708,0,0,2.3664,2.3666,0,0,0,0,0,0,0,0,2.3452,2.3461,2.3534,2.3535,2.3537,2.3582,2.357,2.3634,2.3589,2.3569,2.3585,2.3583,2.3626,2.3631,2.3647,2.3711,2.3713,2.3665,2.3667,2.3669,2.367,0,0,0,0,0,0,0,2.3448,2.3458,2.3556,2.3535,2.3537,2.3533,2.354,2.3582,2.3605,2.357,2.357,2.3578,2.3626,2.3643,2.3648,2.3714,2.3665,2.3668,2.3671,2.3672,2.3822,2.3824,0,0,0,0,0,0,2.3443,2.3454,2.3553,2.3557,2.349,2.3536,2.3544,2.3569,2.3605,2.3609,2.3579,2.3577,2.3637,2.3644,2.365,2.3715,2.3669,2.3672,2.3675,2.3821,2.3823,2.3825,0,0,0,0,0,0,2.344,2.3452,2.3551,2.3506,2.3518,2.354,2.3568,2.3571,2.3587,2.3611,2.3615,2.3592,2.3636,2.3645,2.3693,2.3717,2.3674,2.3678,2.3819,2.3821,2.3824,2.3846,0,0,0,0,0,0,2.3436,2.3451,2.3474,2.3506,2.3521,2.3594,2.357,2.3573,2.3595,2.3593,2.3625,2.3628,2.3636,2.3687,2.3697,2.3721,2.3681,2.3817,2.382,2.3823,2.3843,2.3848,2.3853,0,0,0,0,0,2.3432,2.3477,2.3475,2.3487,2.355,2.3596,2.3604,2.3612,2.3597,2.3618,2.3633,2.3627,2.3713,2.3692,2.3703,2.3729,2.3815,2.3819,2.3823,2.384,2.3847,2.3853,0,0,0,0,0,0,2.3446,2.3482,2.348,2.3538,2.3564,2.3594,2.3622,2.362,2.365,2.3647,2.3655,2.3662,2.371,2.3725,2.3701,2.3782,2.3762,2.3768,2.3771,2.3778,2.3783,2.3778,2.3684,0,0,0,0,0,2.3457,2.3493,2.3521,2.3569,2.3583,2.36,2.3621,2.3625,2.3652,2.3662,2.3681,2.3706,2.3738,2.3759,2.379,2.3845,2.385,2.3868,2.3873,2.3878,2.3882,2.3909,2.3916,2.3837,2.3837,2.3837,0,0,2.3478,2.3501,2.3524,2.3573,2.3594,2.3628,2.361,2.3648,2.3673,2.3668,2.3714,2.3728,2.3756,2.3807,2.3831,2.3821,2.3905,2.3882,2.3886,2.3888,2.3914,2.3921,2.3928,2.3839,2.3839,2.3838,0,0,2.3533,2.3556,2.3598,2.3619,2.365,2.3661,2.3671,2.3702,2.3711,2.3758,2.3754,2.3783,2.3839,2.3858,2.3876,2.3936,2.393,2.3946,2.3973,2.3999,2.4005,2.4011,2.403,2.4037,2.395,2.3951,2.3951,0,2.3555,2.3609,2.3619,2.3657,2.3678,2.3675,2.3715,2.3735,2.3774,2.3787,2.3776,2.3845,2.3864,2.3917,2.3932,2.3947,2.3956,2.3942,2.4004,2.4009,2.4015,2.4033,2.404,2.3952,2.3952,2.3952,2.3952,0,2.3633,2.367,2.37,2.3738,2.3762,2.3801,2.3814,2.3837,2.3839,2.385,2.3896,2.3918,2.3952,2.3966,2.3968,2.4019,2.4012,2.4002,2.3981,2.4024,2.4041,2.4048,2.3954,2.3954,2.3953,2.3953,0,0,2.3701,2.3743,2.3753,2.3769,2.3803,2.3831,2.3869,2.3903,2.3921,2.3948,2.3978,2.4024,2.4015,2.4034,2.4038,2.4061,2.4104,2.4048,2.4049,2.4056,2.4158,2.4164,2.4172,2.4101,2.4102,2.4103,2.4155,0,2.3758,2.3826,2.3834,2.3894,2.3926,2.3923,2.3955,2.3978,2.3989,2.4017,2.4029,2.4061,2.4047,2.4058,2.4081,2.4094,2.4124,2.4091,2.4126,2.4128,2.4118,2.4182,2.4188,2.4236,2.4162,2.4163,2.4164,0,2.3835,2.3863,2.3926,2.3952,2.3966,2.3996,2.4026,2.4054,2.4078,2.4084,2.4105,2.4105,2.4141,2.412,2.4168,2.4145,2.416,2.4168,2.417,2.4172,2.4147,2.4183,2.4252,2.4258,2.4175,2.4174,2.4174,0,2.3874,2.3929,2.3973,2.3987,2.402,2.404,2.4054,2.4077,2.4096,2.4122,2.4134,2.4164,2.418,2.4202,2.4209,2.4193,2.4256,2.4236,2.426,2.426,2.4273,2.4272,2.4343,2.4286,2.4286,2.4285,2.4285,0,2.3937,2.3974,2.3991,2.4018,2.4059,2.4067,2.4107,2.412,2.414,2.4168,2.4167,2.4192,2.4201,2.4227,2.4233,2.4271,2.4279,2.4283,2.4283,2.4282,2.4281,2.4291,2.4287,2.4287,2.4287,2.4287,2.4286,0,2.3988,2.4001,2.4048,2.4075,2.4082,2.4111,2.4133,2.4157,2.4167,2.4202,2.421,2.4226,2.4256,2.4266,2.4303,2.4307,2.435,2.4349,2.4342,2.4341,2.4364,2.4361,2.4443,2.4453,2.4391,2.4392,2.4392,0,2.4026,2.4055,2.4084,2.4103,2.4118,2.4148,2.4167,2.4176,2.4195,2.4224,2.4244,2.4275,2.43,2.4348,2.4362,2.4389,2.4387,2.4414,2.4391,2.4388,2.4385,2.4382,2.4384,2.4418,2.4418,2.4419,2.4419,0,2.4091,2.4096,2.4124,2.4154,2.4177,2.4201,2.4224,2.4239,2.425,2.4272,2.4303,2.4322,2.4359,2.4389,2.4416,2.4429,2.4425,2.4426,2.4433,2.4431,2.4425,2.4426,2.4351,2.4424,2.4424,2.4423,2.4423,2.4423,2.4136,2.416,2.4184,2.4215,2.4233,2.4253,2.4277,2.429,2.4317,2.4348,2.4351,2.4384,2.4405,2.4442,2.4455,2.448,2.4472,2.4482,2.4485,2.4487,2.4487,2.4422,2.4485,2.4485,2.4485,2.4485,2.4485,0,2.4199,2.4214,2.4242,2.4274,2.4297,2.4293,2.4317,2.4336,2.4366,2.4386,2.441,2.4445,2.4472,2.4488,2.4515,2.4531,2.453,2.4538,2.4536,2.4538,2.4494,2.4484,2.4538,2.4538,2.4538,2.4538,2.4538,2.4538,2.4234,2.4275,2.4281,2.4329,2.4343,2.4376,2.439,2.4408,2.4424,2.4463,2.4486,2.4496,2.4514,2.4542,2.4566,2.4569,2.4578,2.4587,2.4589,2.4547,2.4542,2.4536,2.4527,2.4589,2.4589,2.4631,2.4631,2.4632]}]]